World > North America > United States > Wisconsin   City of Sheboygan, WI

Sheboygan, Wisconsin Regional Weather

Lat: 43.75N, Lon: 87.72W
Wx Zone: WIZ052Web Search
Sheboygan Weather Warning NWS WEATHER ALERT FOR THE SHEBOYGAN, WI AREA - Issued: 414 AM CDT Fri Sep 25 2020 Sheboygan Weather Warning  

Helpful Tip: Type the letters wx in the search engine next time you need to find us.

Feedback
Sheboygan Weather Map
UTC Time: 9/25/2020, 12:48
Your Time:

Sheboygan, WI Regional Weather

Expires:202009251300;;339928
ASUS43 KMKX 251221
RWRWI 

WISCONSIN REGIONAL WEATHER ROUNDUP
NATIONAL WEATHER SERVICE MILWAUKEE/SULLIVAN WI
700 AM CDT FRI SEP 25 2020

NOTE: "FAIR" INDICATES FEW OR NO CLOUDS BELOW 12,000 FEET WITH NO
SIGNIFICANT WEATHER AND/OR OBSTRUCTIONS TO VISIBILITY.


WIZ051-052-058>065-066-070>072-251300-
SOUTHEAST WISCONSIN
  
CITY           SKY/WX    TMP DP  RH WIND       PRES   REMARKS
MILWAUKEE      PTCLDY    61  54  77 SW7       29.96R                  
6HR MIN TEMP:  60; 6HR MAX TEMP:  64;                                

WAUKESHA       CLEAR     55  52  88 S5        29.97R                  
MILWAUKEE/TIMM CLEAR     55  50  82 S3        29.98R                  
RACINE         CLEAR     59  54  83 SW7       29.98S                  
6HR MIN TEMP:  57; 6HR MAX TEMP:  64;                                

KENOSHA        CLEAR     59  53  80 SW6       29.98R                  
6HR MIN TEMP:  56; 6HR MAX TEMP:  62;                                

FOND DU LAC    CLEAR     60  55  83 S7        29.93S                  
6HR MIN TEMP:  60; 6HR MAX TEMP:  67;                                

SHEBOYGAN      CLEAR     61  55  81 SW6       29.94R                  
6HR MIN TEMP:  60; 6HR MAX TEMP:  64;                                

WEST BEND      CLEAR     57  54  88 CALM      29.96R                  
JUNEAU         CLEAR     57  55  92 S6        29.95S                  
6HR MIN TEMP:  36; 6HR MAX TEMP:  90;                                

$$


SKY/WX - Weather  TMP - Temperature  DP - Dew Point  RH - Relative Humidity
WIND - Wind Direction/Speed PRES - Barometric Pressure VSB - Visibility
WCI - Wind Chill Index E13G22 Wind - East Wind 13 mph/Gusts of 22 mph